User: anonymous   Login
Location: *
(40.7873°S, 98.7174°E)
Time: 09:25:55
(UTC+00:00)
Language:

Meteor 2-3 Rocket - Orbit

View from above orbital plane
View from above orbital plane
View from above satellite
View from above satellite

Ground track
Ground track

The orbit data is extracted from the following two-line orbital elements,

1 10515U 77117B   22227.51994373  .00000185  00000-0  99905-4 0  9991
2 10515  81.2426 247.0726 0030056 321.0263  38.8741 14.08759712295243
Epoch (UTC): 15 August 2022 12:28:43
Eccentricity: 0.0030056
inclination: 81.2426°
perigee height: 842 km
apogee height: 885 km
right ascension of ascending node: 247.0726°
argument of perigee: 321.0263°
revolutions per day: 14.08759712
mean anomaly at epoch: 38.8741°
orbit number at epoch: 29524

The dashed part of the orbit path shows where the satellite is in the earth's shadow,  

DLR